Time,TemperatureF,DewpointF,PressureIn,WindDirection,WindDirectionDegrees,WindSpeedMPH,WindSpeedGustMPH,Humidity,HourlyPrecipIn,Conditions,Clouds,dailyrainin,SoftwareType,DateUTC
2013-01-04 00:04:00,46.0,15.5,25.18,SW,222,0.0,-999.0,29,-99.99,,,-99.99,dwt +perl,2013-01-04 08:04:00,
2013-01-04 00:09:00,46.0,15.5,25.18,SW,222,0.0,-999.0,29,-99.99,,,-99.99,dwt +perl,2013-01-04 08:09:00,
2013-01-04 00:14:00,46.2,16.5,25.18,SW,222,1.0,-999.0,30,-99.99,,,-99.99,dwt +perl,2013-01-04 08:14:00,
2013-01-04 00:19:00,46.2,15.7,25.18,SW,222,0.0,-999.0,29,-99.99,,,-99.99,dwt +perl,2013-01-04 08:19:00,
2013-01-04 00:24:00,46.2,15.7,25.17,SW,222,1.0,-999.0,29,-99.99,,,-99.99,dwt +perl,2013-01-04 08:24:00,
2013-01-04 00:29:00,46.2,15.7,25.17,SW,222,2.0,-999.0,29,-99.99,,,-99.99,dwt +perl,2013-01-04 08:29:00,
2013-01-04 00:34:00,46.3,15.8,25.17,SW,222,1.0,-999.0,29,-99.99,,,-99.99,dwt +perl,2013-01-04 08:34:00,
2013-01-04 00:39:00,46.3,15.8,25.17,SW,222,3.0,-999.0,29,-99.99,,,-99.99,dwt +perl,2013-01-04 08:39:00,
2013-01-04 00:44:00,46.2,16.5,25.17,SW,222,3.0,-999.0,30,-99.99,,,-99.99,dwt +perl,2013-01-04 08:44:00,
2013-01-04 00:49:00,46.1,16.4,25.17,SW,222,4.0,-999.0,30,-99.99,,,-99.99,dwt +perl,2013-01-04 08:49:00,
2013-01-04 00:54:00,46.0,17.1,25.17,SW,222,3.0,-999.0,31,-99.99,,,-99.99,dwt +perl,2013-01-04 08:54:00,
2013-01-04 00:59:00,46.0,17.1,25.17,SW,222,4.0,-999.0,31,-99.99,,,-99.99,dwt +perl,2013-01-04 08:59:00,
2013-01-04 01:04:00,45.9,17.0,25.17,SW,222,1.0,-999.0,31,-99.99,,,-99.99,dwt +perl,2013-01-04 09:04:00,
2013-01-04 01:09:00,45.8,16.9,25.17,SW,222,2.0,-999.0,31,-99.99,,,-99.99,dwt +perl,2013-01-04 09:09:00,
2013-01-04 01:14:00,46.0,17.1,25.17,SW,222,3.0,-999.0,31,-99.99,,,-99.99,dwt +perl,2013-01-04 09:14:00,
2013-01-04 01:19:00,46.0,16.3,25.17,SW,222,1.0,-999.0,30,-99.99,,,-99.99,dwt +perl,2013-01-04 09:19:00,
2013-01-04 01:24:00,46.1,16.4,25.17,SW,222,3.0,-999.0,30,-99.99,,,-99.99,dwt +perl,2013-01-04 09:24:00,
2013-01-04 01:29:00,46.1,16.4,25.17,SW,222,3.0,-999.0,30,-99.99,,,-99.99,dwt +perl,2013-01-04 09:29:00,
2013-01-04 01:34:00,46.1,16.4,25.17,SW,222,3.0,-999.0,30,-99.99,,,-99.99,dwt +perl,2013-01-04 09:34:00,
2013-01-04 01:39:00,46.1,16.4,25.17,SW,222,2.0,-999.0,30,-99.99,,,-99.99,dwt +perl,2013-01-04 09:39:00,
2013-01-04 01:44:00,46.0,16.3,25.17,SW,222,2.0,-999.0,30,-99.99,,,-99.99,dwt +perl,2013-01-04 09:44:00,
2013-01-04 01:49:00,46.0,17.1,25.17,SW,222,0.0,-999.0,31,-99.99,,,-99.99,dwt +perl,2013-01-04 09:49:00,
2013-01-04 01:54:00,45.9,16.2,25.17,SW,222,0.0,-999.0,30,-99.99,,,-99.99,dwt +perl,2013-01-04 09:54:00,
2013-01-04 01:59:00,45.9,15.5,25.17,SW,222,0.0,-999.0,29,-99.99,,,-99.99,dwt +perl,2013-01-04 09:59:00,
2013-01-04 02:04:00,45.8,14.6,25.17,SW,222,0.0,-999.0,28,-99.99,,,-99.99,dwt +perl,2013-01-04 10:04:00,
2013-01-04 02:09:00,45.6,15.2,25.17,SW,222,0.0,-999.0,29,-99.99,,,-99.99,dwt +perl,2013-01-04 10:09:00,
2013-01-04 02:14:00,45.4,15.0,25.17,SW,222,0.0,-999.0,29,-99.99,,,-99.99,dwt +perl,2013-01-04 10:14:00,
2013-01-04 02:19:00,45.4,15.8,25.17,SW,222,0.0,-999.0,30,-99.99,,,-99.99,dwt +perl,2013-01-04 10:19:00,
2013-01-04 02:24:00,45.3,15.7,25.17,SW,222,0.0,-999.0,30,-99.99,,,-99.99,dwt +perl,2013-01-04 10:24:00,
2013-01-04 02:29:00,45.2,15.6,25.17,SW,222,1.0,-999.0,30,-99.99,,,-99.99,dwt +perl,2013-01-04 10:29:00,
2013-01-04 02:34:00,45.2,16.4,25.17,SW,222,0.0,-999.0,31,-99.99,,,-99.99,dwt +perl,2013-01-04 10:34:00,
2013-01-04 02:39:00,45.1,15.5,25.17,SW,222,0.0,-999.0,30,-99.99,,,-99.99,dwt +perl,2013-01-04 10:39:00,
2013-01-04 02:44:00,45.2,15.6,25.17,SW,222,2.0,-999.0,30,-99.99,,,-99.99,dwt +perl,2013-01-04 10:44:00,
2013-01-04 02:49:00,45.4,12.5,25.17,SW,222,3.0,-999.0,26,-99.99,,,-99.99,dwt +perl,2013-01-04 10:49:00,
2013-01-04 02:54:00,45.5,10.8,25.17,SW,222,2.0,-999.0,24,-99.99,,,-99.99,dwt +perl,2013-01-04 10:54:00,
2013-01-04 02:59:00,45.6,14.4,25.17,SW,222,0.0,-999.0,28,-99.99,,,-99.99,dwt +perl,2013-01-04 10:59:00,
2013-01-04 03:04:00,45.8,14.6,25.17,SW,222,1.0,-999.0,28,-99.99,,,-99.99,dwt +perl,2013-01-04 11:04:00,
2013-01-04 03:09:00,45.9,13.8,25.17,SW,222,2.0,-999.0,27,-99.99,,,-99.99,dwt +perl,2013-01-04 11:09:00,
2013-01-04 03:14:00,45.9,14.6,25.17,SW,222,1.0,-999.0,28,-99.99,,,-99.99,dwt +perl,2013-01-04 11:14:00,
2013-01-04 03:19:00,45.9,13.8,25.17,SW,222,0.0,-999.0,27,-99.99,,,-99.99,dwt +perl,2013-01-04 11:19:00,
2013-01-04 03:24:00,45.8,13.7,25.17,SW,222,0.0,-999.0,27,-99.99,,,-99.99,dwt +perl,2013-01-04 11:24:00,
2013-01-04 03:29:00,45.8,14.6,25.17,SW,222,0.0,-999.0,28,-99.99,,,-99.99,dwt +perl,2013-01-04 11:29:00,
2013-01-04 03:34:00,45.8,13.7,25.17,SW,222,1.0,-999.0,27,-99.99,,,-99.99,dwt +perl,2013-01-04 11:34:00,
2013-01-04 03:39:00,45.7,13.6,25.16,SW,222,1.0,-999.0,27,-99.99,,,-99.99,dwt +perl,2013-01-04 11:39:00,
2013-01-04 03:44:00,45.6,13.6,25.16,SW,222,0.0,-999.0,27,-99.99,,,-99.99,dwt +perl,2013-01-04 11:44:00,
2013-01-04 03:49:00,45.6,13.6,25.16,SW,222,0.0,-999.0,27,-99.99,,,-99.99,dwt +perl,2013-01-04 11:49:00,
2013-01-04 03:54:00,45.6,13.6,25.16,SW,222,3.0,-999.0,27,-99.99,,,-99.99,dwt +perl,2013-01-04 11:54:00,
2013-01-04 03:59:00,45.7,14.5,25.16,SW,222,2.0,-999.0,28,-99.99,,,-99.99,dwt +perl,2013-01-04 11:59:00,
2013-01-04 04:04:00,45.7,14.5,25.16,SW,222,3.0,-999.0,28,-99.99,,,-99.99,dwt +perl,2013-01-04 12:04:00,
2013-01-04 04:09:00,45.6,13.6,25.16,SW,222,3.0,-999.0,27,-99.99,,,-99.99,dwt +perl,2013-01-04 12:09:00,
2013-01-04 04:14:00,45.5,14.3,25.16,SW,222,4.0,-999.0,28,-99.99,,,-99.99,dwt +perl,2013-01-04 12:14:00,
2013-01-04 04:19:00,45.5,13.5,25.16,SW,222,4.0,-999.0,27,-99.99,,,-99.99,dwt +perl,2013-01-04 12:19:00,
2013-01-04 04:24:00,45.4,13.4,25.16,SW,222,5.0,-999.0,27,-99.99,,,-99.99,dwt +perl,2013-01-04 12:24:00,
2013-01-04 04:29:00,45.4,13.4,25.16,SW,222,2.0,-999.0,27,-99.99,,,-99.99,dwt +perl,2013-01-04 12:29:00,
2013-01-04 04:34:00,45.4,13.4,25.16,SW,222,2.0,-999.0,27,-99.99,,,-99.99,dwt +perl,2013-01-04 12:34:00,
2013-01-04 04:39:00,45.5,13.5,25.16,SW,222,3.0,-999.0,27,-99.99,,,-99.99,dwt +perl,2013-01-04 12:39:00,
2013-01-04 04:44:00,45.5,13.5,25.16,SW,222,4.0,-999.0,27,-99.99,,,-99.99,dwt +perl,2013-01-04 12:44:00,
2013-01-04 04:49:00,45.6,13.6,25.16,SW,222,5.0,-999.0,27,-99.99,,,-99.99,dwt +perl,2013-01-04 12:49:00,
2013-01-04 04:54:00,45.6,13.6,25.16,SW,222,6.0,-999.0,27,-99.99,,,-99.99,dwt +perl,2013-01-04 12:54:00,
2013-01-04 04:59:00,45.5,14.3,25.16,SW,222,3.0,-999.0,28,-99.99,,,-99.99,dwt +perl,2013-01-04 12:59:00,
2013-01-04 05:04:00,45.2,14.1,25.16,SW,222,3.0,-999.0,28,-99.99,,,-99.99,dwt +perl,2013-01-04 13:04:00,
2013-01-04 05:09:00,45.2,13.2,25.16,SW,222,3.0,-999.0,27,-99.99,,,-99.99,dwt +perl,2013-01-04 13:09:00,
2013-01-04 05:14:00,45.3,13.3,25.16,SW,222,2.0,-999.0,27,-99.99,,,-99.99,dwt +perl,2013-01-04 13:14:00,
2013-01-04 05:19:00,45.4,12.5,25.16,SW,222,1.0,-999.0,26,-99.99,,,-99.99,dwt +perl,2013-01-04 13:19:00,
2013-01-04 05:24:00,45.6,12.7,25.16,SW,222,3.0,-999.0,26,-99.99,,,-99.99,dwt +perl,2013-01-04 13:24:00,
2013-01-04 05:29:00,45.6,12.7,25.16,SW,222,2.0,-999.0,26,-99.99,,,-99.99,dwt +perl,2013-01-04 13:29:00,
2013-01-04 05:34:00,45.6,12.7,25.16,SW,222,0.0,-999.0,26,-99.99,,,-99.99,dwt +perl,2013-01-04 13:34:00,
2013-01-04 05:39:00,45.5,12.6,25.16,SW,222,0.0,-999.0,26,-99.99,,,-99.99,dwt +perl,2013-01-04 13:39:00,
2013-01-04 05:44:00,45.5,12.6,25.16,SW,222,0.0,-999.0,26,-99.99,,,-99.99,dwt +perl,2013-01-04 13:44:00,
2013-01-04 05:49:00,45.5,12.6,25.16,SW,222,0.0,-999.0,26,-99.99,,,-99.99,dwt +perl,2013-01-04 13:49:00,
2013-01-04 05:54:00,45.5,12.6,25.16,SW,222,3.0,-999.0,26,-99.99,,,-99.99,dwt +perl,2013-01-04 13:54:00,
2013-01-04 05:59:00,45.5,12.6,25.17,SW,222,4.0,-999.0,26,-99.99,,,-99.99,dwt +perl,2013-01-04 13:59:00,
2013-01-04 06:04:00,45.6,12.7,25.17,SW,222,4.0,-999.0,26,-99.99,,,-99.99,dwt +perl,2013-01-04 14:04:00,
2013-01-04 06:09:00,45.6,12.7,25.17,SW,222,4.0,-999.0,26,-99.99,,,-99.99,dwt +perl,2013-01-04 14:09:00,
2013-01-04 06:14:00,45.6,12.7,25.17,SW,222,2.0,-999.0,26,-99.99,,,-99.99,dwt +perl,2013-01-04 14:14:00,
2013-01-04 06:19:00,45.6,11.8,25.17,SW,222,3.0,-999.0,25,-99.99,,,-99.99,dwt +perl,2013-01-04 14:19:00,
2013-01-04 06:24:00,45.5,9.9,25.17,SW,222,0.0,-999.0,23,-99.99,,,-99.99,dwt +perl,2013-01-04 14:24:00,
2013-01-04 06:29:00,45.5,11.7,25.17,SW,222,0.0,-999.0,25,-99.99,,,-99.99,dwt +perl,2013-01-04 14:29:00,
2013-01-04 06:34:00,45.7,11.9,25.17,SW,222,2.0,-999.0,25,-99.99,,,-99.99,dwt +perl,2013-01-04 14:34:00,
2013-01-04 06:39:00,45.8,12.9,25.17,SSW,213,3.0,-999.0,26,-99.99,,,-99.99,dwt +perl,2013-01-04 14:39:00,
2013-01-04 06:44:00,46.1,13.1,25.17,SSE,158,3.0,-999.0,26,-99.99,,,-99.99,dwt +perl,2013-01-04 14:44:00,
2013-01-04 06:49:00,46.5,12.6,25.17,SSE,154,2.0,-999.0,25,-99.99,,,-99.99,dwt +perl,2013-01-04 14:49:00,
2013-01-04 06:54:00,46.7,21.8,25.17,SSE,154,1.0,-999.0,37,-99.99,,,-99.99,dwt +perl,2013-01-04 14:54:00,
2013-01-04 06:59:00,47.0,18.7,25.17,SSE,154,3.0,-999.0,32,-99.99,,,-99.99,dwt +perl,2013-01-04 14:59:00,
2013-01-04 07:04:00,47.1,18.0,25.18,SSE,154,1.0,-999.0,31,-99.99,,,-99.99,dwt +perl,2013-01-04 15:04:00,
2013-01-04 07:09:00,46.9,15.5,25.17,SSW,205,5.0,-999.0,28,-99.99,,,-99.99,dwt +perl,2013-01-04 15:09:00,
2013-01-04 07:14:00,46.5,12.6,25.18,SW,221,6.0,-999.0,25,-99.99,,,-99.99,dwt +perl,2013-01-04 15:14:00,
2013-01-04 07:19:00,45.9,11.2,25.18,WSW,237,4.0,-999.0,24,-99.99,,,-99.99,dwt +perl,2013-01-04 15:19:00,
2013-01-04 07:24:00,45.4,8.8,25.18,WSW,242,7.0,-999.0,22,-99.99,,,-99.99,dwt +perl,2013-01-04 15:24:00,
2013-01-04 07:29:00,45.5,8.9,25.18,WSW,242,8.0,-999.0,22,-99.99,,,-99.99,dwt +perl,2013-01-04 15:29:00,
2013-01-04 07:34:00,45.9,10.2,25.18,WSW,243,7.0,-999.0,23,-99.99,,,-99.99,dwt +perl,2013-01-04 15:34:00,
2013-01-04 07:39:00,46.2,10.5,25.18,WSW,243,5.0,-999.0,23,-99.99,,,-99.99,dwt +perl,2013-01-04 15:39:00,
2013-01-04 07:44:00,46.5,11.7,25.19,WSW,243,7.0,-999.0,24,-99.99,,,-99.99,dwt +perl,2013-01-04 15:44:00,
2013-01-04 07:49:00,46.7,12.8,25.19,WSW,243,7.0,-999.0,25,-99.99,,,-99.99,dwt +perl,2013-01-04 15:49:00,
2013-01-04 07:54:00,46.8,11.9,25.19,WSW,238,5.0,-999.0,24,-99.99,,,-99.99,dwt +perl,2013-01-04 15:54:00,
2013-01-04 07:59:00,46.8,11.0,25.19,WSW,238,4.0,-999.0,23,-99.99,,,-99.99,dwt +perl,2013-01-04 15:59:00,
2013-01-04 08:04:00,46.9,11.1,25.19,WSW,238,3.0,-999.0,23,-99.99,,,-99.99,dwt +perl,2013-01-04 16:04:00,
2013-01-04 08:09:00,47.1,12.2,25.19,WSW,238,1.0,-999.0,24,-99.99,,,-99.99,dwt +perl,2013-01-04 16:09:00,
2013-01-04 08:14:00,47.3,14.2,25.19,WSW,238,2.0,-999.0,26,-99.99,,,-99.99,dwt +perl,2013-01-04 16:14:00,
2013-01-04 08:19:00,47.6,15.3,25.19,WSW,239,3.0,-999.0,27,-99.99,,,-99.99,dwt +perl,2013-01-04 16:19:00,
2013-01-04 08:24:00,47.7,16.2,25.19,WSW,238,4.0,-999.0,28,-99.99,,,-99.99,dwt +perl,2013-01-04 16:24:00,
2013-01-04 08:29:00,47.5,16.0,25.20,SW,231,8.0,-999.0,28,-99.99,,,-99.99,dwt +perl,2013-01-04 16:29:00,
2013-01-04 08:34:00,47.3,15.9,25.19,SW,220,6.0,-999.0,28,-99.99,,,-99.99,dwt +perl,2013-01-04 16:34:00,
2013-01-04 08:39:00,47.3,15.9,25.20,SW,215,6.0,-999.0,28,-99.99,,,-99.99,dwt +perl,2013-01-04 16:39:00,
2013-01-04 08:44:00,47.3,15.9,25.20,SW,215,6.0,-999.0,28,-99.99,,,-99.99,dwt +perl,2013-01-04 16:44:00,
2013-01-04 08:49:00,47.5,14.3,25.20,SW,214,7.0,-999.0,26,-99.99,,,-99.99,dwt +perl,2013-01-04 16:49:00,
2013-01-04 08:54:00,47.9,14.7,25.20,SW,214,7.0,-999.0,26,-99.99,,,-99.99,dwt +perl,2013-01-04 16:54:00,
2013-01-04 08:59:00,48.1,14.0,25.20,SSW,211,7.0,-999.0,25,-99.99,,,-99.99,dwt +perl,2013-01-04 16:59:00,
2013-01-04 09:04:00,48.2,14.1,25.20,SSW,206,8.0,-999.0,25,-99.99,,,-99.99,dwt +perl,2013-01-04 17:04:00,
2013-01-04 09:09:00,48.2,13.1,25.20,SSW,213,5.0,-999.0,24,-99.99,,,-99.99,dwt +perl,2013-01-04 17:09:00,
2013-01-04 09:14:00,48.7,12.6,25.20,SSW,208,3.0,-999.0,23,-99.99,,,-99.99,dwt +perl,2013-01-04 17:14:00,
2013-01-04 09:19:00,48.7,12.6,25.21,West,266,3.0,-999.0,23,-99.99,,,-99.99,dwt +perl,2013-01-04 17:19:00,
2013-01-04 09:24:00,48.9,14.6,25.21,West,265,3.0,-999.0,25,-99.99,,,-99.99,dwt +perl,2013-01-04 17:24:00,
2013-01-04 09:29:00,48.9,15.5,25.21,WSW,254,5.0,-999.0,26,-99.99,,,-99.99,dwt +perl,2013-01-04 17:29:00,
2013-01-04 09:34:00,48.9,16.4,25.21,WSW,253,4.0,-999.0,27,-99.99,,,-99.99,dwt +perl,2013-01-04 17:34:00,
2013-01-04 09:39:00,49.1,15.7,25.21,WSW,237,3.0,-999.0,26,-99.99,,,-99.99,dwt +perl,2013-01-04 17:39:00,
2013-01-04 09:44:00,49.1,17.4,25.21,SW,235,3.0,-999.0,28,-99.99,,,-99.99,dwt +perl,2013-01-04 17:44:00,
2013-01-04 09:49:00,49.3,18.4,25.22,SW,235,1.0,-999.0,29,-99.99,,,-99.99,dwt +perl,2013-01-04 17:49:00,
2013-01-04 09:54:00,49.5,19.4,25.21,SW,235,3.0,-999.0,30,-99.99,,,-99.99,dwt +perl,2013-01-04 17:54:00,
2013-01-04 09:59:00,49.7,19.5,25.22,SW,235,4.0,-999.0,30,-99.99,,,-99.99,dwt +perl,2013-01-04 17:59:00,
2013-01-04 10:04:00,49.7,19.5,25.22,SW,226,7.0,-999.0,30,-99.99,,,-99.99,dwt +perl,2013-01-04 18:04:00,
2013-01-04 10:09:00,49.6,21.0,25.22,WSW,237,4.0,-999.0,32,-99.99,,,-99.99,dwt +perl,2013-01-04 18:09:00,
2013-01-04 10:14:00,49.8,21.1,25.21,SW,232,2.0,-999.0,32,-99.99,,,-99.99,dwt +perl,2013-01-04 18:14:00,
2013-01-04 10:19:00,49.8,18.8,25.21,SW,231,4.0,-999.0,29,-99.99,,,-99.99,dwt +perl,2013-01-04 18:19:00,
2013-01-04 10:24:00,49.7,19.5,25.21,SW,230,5.0,-999.0,30,-99.99,,,-99.99,dwt +perl,2013-01-04 18:24:00,
2013-01-04 10:29:00,49.9,19.7,25.21,SW,224,7.0,-999.0,30,-99.99,,,-99.99,dwt +perl,2013-01-04 18:29:00,
2013-01-04 10:34:00,49.9,19.7,25.21,SW,233,8.0,-999.0,30,-99.99,,,-99.99,dwt +perl,2013-01-04 18:34:00,
2013-01-04 10:39:00,49.6,22.4,25.21,SW,224,4.0,-999.0,34,-99.99,,,-99.99,dwt +perl,2013-01-04 18:39:00,
2013-01-04 10:44:00,49.5,20.1,25.21,SW,218,9.0,-999.0,31,-99.99,,,-99.99,dwt +perl,2013-01-04 18:44:00,
2013-01-04 10:49:00,49.5,20.1,25.21,SW,225,5.0,-999.0,31,-99.99,,,-99.99,dwt +perl,2013-01-04 18:49:00,
2013-01-04 10:54:00,49.6,21.7,25.21,SSW,204,7.0,-999.0,33,-99.99,,,-99.99,dwt +perl,2013-01-04 18:54:00,
2013-01-04 10:59:00,49.6,22.4,25.20,SSW,212,4.0,-999.0,34,-99.99,,,-99.99,dwt +perl,2013-01-04 18:59:00,
2013-01-04 11:04:00,49.8,21.9,25.20,SW,214,9.0,-999.0,33,-99.99,,,-99.99,dwt +perl,2013-01-04 19:04:00,
2013-01-04 11:09:00,49.7,24.5,25.20,SSW,210,9.0,-999.0,37,-99.99,,,-99.99,dwt +perl,2013-01-04 19:09:00,
2013-01-04 11:14:00,49.6,27.5,25.20,SW,219,5.0,-999.0,42,-99.99,,,-99.99,dwt +perl,2013-01-04 19:14:00,
2013-01-04 11:19:00,49.5,29.6,25.19,SW,214,4.0,-999.0,46,-99.99,,,-99.99,dwt +perl,2013-01-04 19:19:00,
2013-01-04 11:23:00,49.9,28.3,25.19,SW,226,5.0,-999.0,43,-99.99,,,-99.99,dwt +perl,2013-01-04 19:23:00,
2013-01-04 11:24:00,49.7,25.8,25.19,SSW,194,6.0,-999.0,39,-99.99,,,-99.99,dwt +perl,2013-01-04 19:24:00,
2013-01-04 11:29:00,49.9,28.3,25.19,SW,226,5.0,-999.0,43,-99.99,,,-99.99,dwt +perl,2013-01-04 19:29:00,
2013-01-04 11:39:00,49.9,32.0,25.18,SSW,206,7.0,-999.0,50,-99.99,,,-99.99,dwt +perl,2013-01-04 19:39:00,
2013-01-04 11:44:00,49.8,30.4,25.18,SSW,205,6.0,-999.0,47,-99.99,,,-99.99,dwt +perl,2013-01-04 19:44:00,
2013-01-04 11:49:00,49.7,32.3,25.18,SSW,212,4.0,-999.0,51,-99.99,,,-99.99,dwt +perl,2013-01-04 19:49:00,
2013-01-04 11:54:00,49.8,31.9,25.18,SSW,208,7.0,-999.0,50,-99.99,,,-99.99,dwt +perl,2013-01-04 19:54:00,
2013-01-04 11:59:00,50.1,30.1,25.17,WSW,241,5.0,-999.0,46,-99.99,,,-99.99,dwt +perl,2013-01-04 19:59:00,
2013-01-04 12:04:00,49.9,31.5,25.17,SSW,212,6.0,-999.0,49,-99.99,,,-99.99,dwt +perl,2013-01-04 20:04:00,
2013-01-04 12:09:00,50.1,31.7,25.17,SSW,211,5.0,-999.0,49,-99.99,,,-99.99,dwt +perl,2013-01-04 20:09:00,
2013-01-04 12:14:00,50.2,31.3,25.17,SW,222,4.0,-999.0,48,-99.99,,,-99.99,dwt +perl,2013-01-04 20:14:00,
2013-01-04 12:19:00,50.5,30.5,25.17,SW,216,4.0,-999.0,46,-99.99,,,-99.99,dwt +perl,2013-01-04 20:19:00,
2013-01-04 12:24:00,50.8,30.8,25.17,SSW,206,7.0,-999.0,46,-99.99,,,-99.99,dwt +perl,2013-01-04 20:24:00,
2013-01-04 12:29:00,51.0,29.9,25.17,SSW,200,6.0,-999.0,44,-99.99,,,-99.99,dwt +perl,2013-01-04 20:29:00,
2013-01-04 12:34:00,50.5,30.0,25.16,SW,214,2.0,-999.0,45,-99.99,,,-99.99,dwt +perl,2013-01-04 20:34:00,
2013-01-04 12:39:00,50.5,30.5,25.16,WSW,239,2.0,-999.0,46,-99.99,,,-99.99,dwt +perl,2013-01-04 20:39:00,
2013-01-04 12:44:00,50.9,30.3,25.16,SW,228,4.0,-999.0,45,-99.99,,,-99.99,dwt +perl,2013-01-04 20:44:00,
2013-01-04 12:49:00,50.9,29.8,25.16,SSW,195,3.0,-999.0,44,-99.99,,,-99.99,dwt +perl,2013-01-04 20:49:00,
2013-01-04 12:54:00,50.8,29.7,25.16,SW,225,2.0,-999.0,44,-99.99,,,-99.99,dwt +perl,2013-01-04 20:54:00,
2013-01-04 12:59:00,50.9,29.2,25.16,SW,233,5.0,-999.0,43,-99.99,,,-99.99,dwt +perl,2013-01-04 20:59:00,
2013-01-04 13:04:00,50.6,29.5,25.15,SSW,212,4.0,-999.0,44,-99.99,,,-99.99,dwt +perl,2013-01-04 21:04:00,
2013-01-04 13:09:00,50.8,29.1,25.15,SSW,211,4.0,-999.0,43,-99.99,,,-99.99,dwt +perl,2013-01-04 21:09:00,
2013-01-04 13:14:00,50.9,29.8,25.15,SSW,208,0.0,-999.0,44,-99.99,,,-99.99,dwt +perl,2013-01-04 21:14:00,
2013-01-04 13:19:00,51.2,30.0,25.15,SSW,212,0.0,-999.0,44,-99.99,,,-99.99,dwt +perl,2013-01-04 21:19:00,
2013-01-04 13:24:00,51.6,31.0,25.15,WSW,243,1.0,-999.0,45,-99.99,,,-99.99,dwt +perl,2013-01-04 21:24:00,
2013-01-04 13:29:00,51.6,31.0,25.15,SSW,212,9.0,-999.0,45,-99.99,,,-99.99,dwt +perl,2013-01-04 21:29:00,
2013-01-04 13:34:00,51.5,31.9,25.15,SSW,199,1.0,-999.0,47,-99.99,,,-99.99,dwt +perl,2013-01-04 21:34:00,
2013-01-04 13:39:00,51.6,32.5,25.15,SW,217,4.0,-999.0,48,-99.99,,,-99.99,dwt +perl,2013-01-04 21:39:00,
2013-01-04 13:44:00,51.8,31.1,25.15,SSW,212,5.0,-999.0,45,-99.99,,,-99.99,dwt +perl,2013-01-04 21:44:00,
2013-01-04 13:49:00,51.8,31.1,25.14,SW,219,5.0,-999.0,45,-99.99,,,-99.99,dwt +perl,2013-01-04 21:49:00,
2013-01-04 13:54:00,51.8,31.1,25.15,WSW,256,1.0,-999.0,45,-99.99,,,-99.99,dwt +perl,2013-01-04 21:54:00,
2013-01-04 13:59:00,52.3,31.0,25.14,WSW,255,0.0,-999.0,44,-99.99,,,-99.99,dwt +perl,2013-01-04 21:59:00,
2013-01-04 14:04:00,52.8,30.9,25.14,SW,230,1.0,-999.0,43,-99.99,,,-99.99,dwt +perl,2013-01-04 22:04:00,
2013-01-04 14:09:00,53.0,30.5,25.14,SW,230,0.0,-999.0,42,-99.99,,,-99.99,dwt +perl,2013-01-04 22:09:00,
2013-01-04 14:14:00,52.8,30.4,25.14,SW,225,1.0,-999.0,42,-99.99,,,-99.99,dwt +perl,2013-01-04 22:14:00,
2013-01-04 14:19:00,52.4,28.8,25.14,SW,222,0.0,-999.0,40,-99.99,,,-99.99,dwt +perl,2013-01-04 22:19:00,
2013-01-04 14:24:00,52.4,29.4,25.14,SW,226,3.0,-999.0,41,-99.99,,,-99.99,dwt +perl,2013-01-04 22:24:00,
2013-01-04 14:29:00,52.5,29.5,25.14,SSW,210,0.0,-999.0,41,-99.99,,,-99.99,dwt +perl,2013-01-04 22:29:00,
2013-01-04 14:34:00,52.3,29.9,25.13,SW,235,4.0,-999.0,42,-99.99,,,-99.99,dwt +perl,2013-01-04 22:34:00,
2013-01-04 14:39:00,52.1,30.3,25.14,SW,233,1.0,-999.0,43,-99.99,,,-99.99,dwt +perl,2013-01-04 22:39:00,
2013-01-04 14:44:00,52.1,29.7,25.13,SW,231,1.0,-999.0,42,-99.99,,,-99.99,dwt +perl,2013-01-04 22:44:00,
2013-01-04 14:49:00,52.0,28.4,25.14,SW,225,0.0,-999.0,40,-99.99,,,-99.99,dwt +perl,2013-01-04 22:49:00,
2013-01-04 14:54:00,52.0,29.6,25.13,SSW,209,1.0,-999.0,42,-99.99,,,-99.99,dwt +perl,2013-01-04 22:54:00,
2013-01-04 14:59:00,52.2,29.2,25.13,SSW,209,1.0,-999.0,41,-99.99,,,-99.99,dwt +perl,2013-01-04 22:59:00,
2013-01-04 15:04:00,52.3,29.3,25.13,SSW,212,4.0,-999.0,41,-99.99,,,-99.99,dwt +perl,2013-01-04 23:04:00,
2013-01-04 15:09:00,52.0,29.0,25.13,SW,215,1.0,-999.0,41,-99.99,,,-99.99,dwt +perl,2013-01-04 23:09:00,
2013-01-04 15:14:00,52.0,29.0,25.13,SW,217,0.0,-999.0,41,-99.99,,,-99.99,dwt +perl,2013-01-04 23:14:00,
2013-01-04 15:19:00,52.0,29.0,25.13,SW,217,0.0,-999.0,41,-99.99,,,-99.99,dwt +perl,2013-01-04 23:19:00,
2013-01-04 15:24:00,52.3,28.7,25.13,SW,217,0.0,-999.0,40,-99.99,,,-99.99,dwt +perl,2013-01-04 23:24:00,
2013-01-04 15:29:00,52.6,28.4,25.13,SW,215,0.0,-999.0,39,-99.99,,,-99.99,dwt +perl,2013-01-04 23:29:00,
2013-01-04 15:34:00,52.6,29.0,25.13,SSW,208,2.0,-999.0,40,-99.99,,,-99.99,dwt +perl,2013-01-04 23:34:00,
2013-01-04 15:39:00,52.0,27.8,25.13,SSW,196,1.0,-999.0,39,-99.99,,,-99.99,dwt +perl,2013-01-04 23:39:00,
2013-01-04 15:44:00,50.9,28.0,25.13,South,177,0.0,-999.0,41,-99.99,,,-99.99,dwt +perl,2013-01-04 23:44:00,
2013-01-04 15:49:00,49.8,28.2,25.13,South,172,1.0,-999.0,43,-99.99,,,-99.99,dwt +perl,2013-01-04 23:49:00,
2013-01-04 15:54:00,49.2,27.7,25.13,South,172,0.0,-999.0,43,-99.99,,,-99.99,dwt +perl,2013-01-04 23:54:00,
2013-01-04 15:59:00,49.0,27.5,25.13,South,172,0.0,-999.0,43,-99.99,,,-99.99,dwt +perl,2013-01-04 23:59:00,
2013-01-04 16:09:00,49.6,27.5,25.13,SSW,212,5.0,-999.0,42,-99.99,,,-99.99,dwt +perl,2013-01-05 00:09:00,
2013-01-04 16:19:00,49.1,27.0,25.13,SW,214,1.0,-999.0,42,-99.99,,,-99.99,dwt +perl,2013-01-05 00:19:00,
2013-01-04 16:24:00,49.0,26.9,25.13,SW,218,3.0,-999.0,42,-99.99,,,-99.99,dwt +perl,2013-01-05 00:24:00,
2013-01-04 16:29:00,49.0,26.3,25.13,SW,218,4.0,-999.0,41,-99.99,,,-99.99,dwt +perl,2013-01-05 00:29:00,
2013-01-04 16:34:00,48.8,27.3,25.13,SW,216,6.0,-999.0,43,-99.99,,,-99.99,dwt +perl,2013-01-05 00:34:00,
2013-01-04 16:39:00,48.6,26.5,25.13,SSW,213,4.0,-999.0,42,-99.99,,,-99.99,dwt +perl,2013-01-05 00:39:00,
2013-01-04 16:44:00,48.0,27.1,25.12,SW,216,3.0,-999.0,44,-99.99,,,-99.99,dwt +perl,2013-01-05 00:44:00,
2013-01-04 16:49:00,47.8,27.5,25.12,SW,216,2.0,-999.0,45,-99.99,,,-99.99,dwt +perl,2013-01-05 00:49:00,
2013-01-04 16:59:00,47.1,26.9,25.12,SW,216,6.0,-999.0,45,-99.99,,,-99.99,dwt +perl,2013-01-05 00:59:00,
2013-01-04 17:04:00,46.4,25.7,25.13,SSW,212,6.0,-999.0,44,-99.99,,,-99.99,dwt +perl,2013-01-05 01:04:00,
2013-01-04 17:09:00,46.0,25.3,25.13,SSW,212,5.0,-999.0,44,-99.99,,,-99.99,dwt +perl,2013-01-05 01:09:00,
2013-01-04 17:14:00,45.6,25.0,25.13,SSW,212,6.0,-999.0,44,-99.99,,,-99.99,dwt +perl,2013-01-05 01:14:00,
2013-01-04 17:24:00,45.0,25.5,25.13,SSW,210,6.0,-999.0,46,-99.99,,,-99.99,dwt +perl,2013-01-05 01:24:00,
2013-01-04 17:29:00,44.8,24.8,25.13,SSW,211,5.0,-999.0,45,-99.99,,,-99.99,dwt +perl,2013-01-05 01:29:00,
2013-01-04 17:34:00,45.1,25.0,25.13,SSW,211,4.0,-999.0,45,-99.99,,,-99.99,dwt +perl,2013-01-05 01:34:00,
2013-01-04 17:39:00,45.2,24.6,25.13,SW,216,2.0,-999.0,44,-99.99,,,-99.99,dwt +perl,2013-01-05 01:39:00,
2013-01-04 17:44:00,45.2,24.6,25.13,SW,216,4.0,-999.0,44,-99.99,,,-99.99,dwt +perl,2013-01-05 01:44:00,
2013-01-04 17:49:00,45.2,25.1,25.14,SSW,213,5.0,-999.0,45,-99.99,,,-99.99,dwt +perl,2013-01-05 01:49:00,
2013-01-04 17:54:00,45.3,25.8,25.13,SSW,210,3.0,-999.0,46,-99.99,,,-99.99,dwt +perl,2013-01-05 01:54:00,
2013-01-04 17:59:00,45.2,25.1,25.14,SSW,210,6.0,-999.0,45,-99.99,,,-99.99,dwt +perl,2013-01-05 01:59:00,
2013-01-04 18:04:00,45.1,26.1,25.14,SSW,210,5.0,-999.0,47,-99.99,,,-99.99,dwt +perl,2013-01-05 02:04:00,
2013-01-04 18:09:00,44.9,25.4,25.14,SSW,210,5.0,-999.0,46,-99.99,,,-99.99,dwt +perl,2013-01-05 02:09:00,
2013-01-04 18:14:00,44.7,26.2,25.14,SW,221,5.0,-999.0,48,-99.99,,,-99.99,dwt +perl,2013-01-05 02:14:00,
2013-01-04 18:19:00,44.7,27.2,25.14,SSW,209,5.0,-999.0,50,-99.99,,,-99.99,dwt +perl,2013-01-05 02:19:00,
2013-01-04 18:24:00,44.7,25.7,25.14,SW,214,8.0,-999.0,47,-99.99,,,-99.99,dwt +perl,2013-01-05 02:24:00,
2013-01-04 18:29:00,44.7,24.7,25.14,SSW,210,7.0,-999.0,45,-99.99,,,-99.99,dwt +perl,2013-01-05 02:29:00,
2013-01-04 18:34:00,44.7,24.1,25.14,SW,220,6.0,-999.0,44,-99.99,,,-99.99,dwt +perl,2013-01-05 02:34:00,
2013-01-04 18:39:00,44.6,24.0,25.14,SSW,210,7.0,-999.0,44,-99.99,,,-99.99,dwt +perl,2013-01-05 02:39:00,
2013-01-04 18:44:00,44.4,21.0,25.15,SSW,212,6.0,-999.0,39,-99.99,,,-99.99,dwt +perl,2013-01-05 02:44:00,
2013-01-04 18:49:00,44.2,22.0,25.15,SSW,207,6.0,-999.0,41,-99.99,,,-99.99,dwt +perl,2013-01-05 02:49:00,
2013-01-04 18:54:00,44.3,24.8,25.15,SSW,204,4.0,-999.0,46,-99.99,,,-99.99,dwt +perl,2013-01-05 02:54:00,
2013-01-04 18:59:00,44.5,32.3,25.15,South,181,3.0,-999.0,62,-99.99,,,-99.99,dwt +perl,2013-01-05 02:59:00,
2013-01-04 19:04:00,44.6,31.2,25.15,SSW,195,5.0,-999.0,59,-99.99,,,-99.99,dwt +perl,2013-01-05 03:04:00,
2013-01-04 19:09:00,44.5,30.2,25.15,SSW,196,4.0,-999.0,57,-99.99,,,-99.99,dwt +perl,2013-01-05 03:09:00,
2013-01-04 19:14:00,44.3,31.7,25.15,SSW,192,4.0,-999.0,61,-99.99,,,-99.99,dwt +perl,2013-01-05 03:14:00,
2013-01-04 19:19:00,44.3,33.3,25.15,South,189,3.0,-999.0,65,-99.99,,,-99.99,dwt +perl,2013-01-05 03:19:00,
2013-01-04 19:24:00,44.3,35.1,25.15,SSE,167,5.0,-999.0,70,-99.99,,,-99.99,dwt +perl,2013-01-05 03:24:00,
2013-01-04 19:29:00,44.6,33.6,25.14,South,169,3.0,-999.0,65,-99.99,,,-99.99,dwt +perl,2013-01-05 03:29:00,
2013-01-04 19:34:00,44.8,34.5,25.14,South,174,4.0,-999.0,67,-99.99,,,-99.99,dwt +perl,2013-01-05 03:34:00,
2013-01-04 19:39:00,44.8,34.9,25.15,SSE,166,4.0,-999.0,68,-99.99,,,-99.99,dwt +perl,2013-01-05 03:39:00,
2013-01-04 19:44:00,44.6,35.1,25.14,SE,127,4.0,-999.0,69,-99.99,,,-99.99,dwt +perl,2013-01-05 03:44:00,
2013-01-04 19:49:00,44.3,36.2,25.14,South,170,4.0,-999.0,73,-99.99,,,-99.99,dwt +perl,2013-01-05 03:49:00,
2013-01-04 19:54:00,44.1,36.3,25.15,SSE,166,6.0,-999.0,74,-99.99,,,-99.99,dwt +perl,2013-01-05 03:54:00,
2013-01-04 19:59:00,44.1,35.7,25.15,SSE,168,2.0,-999.0,72,-99.99,,,-99.99,dwt +perl,2013-01-05 03:59:00,
2013-01-04 20:04:00,44.0,36.6,25.15,South,170,5.0,-999.0,75,-99.99,,,-99.99,dwt +perl,2013-01-05 04:04:00,
2013-01-04 20:09:00,43.9,35.8,25.15,SSE,164,3.0,-999.0,73,-99.99,,,-99.99,dwt +perl,2013-01-05 04:09:00,
2013-01-04 20:14:00,44.0,35.6,25.15,South,174,5.0,-999.0,72,-99.99,,,-99.99,dwt +perl,2013-01-05 04:14:00,
2013-01-04 20:19:00,43.9,36.2,25.15,South,173,1.0,-999.0,74,-99.99,,,-99.99,dwt +perl,2013-01-05 04:19:00,
2013-01-04 20:24:00,43.8,36.7,25.15,South,170,5.0,-999.0,76,-99.99,,,-99.99,dwt +perl,2013-01-05 04:24:00,
2013-01-04 20:29:00,43.7,37.0,25.15,South,176,2.0,-999.0,77,-99.99,,,-99.99,dwt +perl,2013-01-05 04:29:00,
2013-01-04 20:34:00,43.3,37.2,25.15,SSW,203,7.0,-999.0,79,-99.99,,,-99.99,dwt +perl,2013-01-05 04:34:00,
2013-01-04 20:39:00,42.9,37.2,25.15,SSW,200,7.0,-999.0,80,-99.99,,,-99.99,dwt +perl,2013-01-05 04:39:00,
2013-01-04 20:43:00,42.6,37.2,25.15,SSW,201,7.0,-999.0,81,-99.99,,,-99.99,dwt +perl,2013-01-05 04:43:00,
2013-01-04 20:44:00,42.7,37.3,25.15,SSW,204,6.0,-999.0,81,-99.99,,,-99.99,dwt +perl,2013-01-05 04:44:00,
2013-01-04 20:49:00,42.6,37.2,25.15,SSW,201,7.0,-999.0,81,-99.99,,,-99.99,dwt +perl,2013-01-05 04:49:00,
2013-01-04 20:59:00,42.4,37.0,25.15,SSW,198,5.0,-999.0,81,-99.99,,,-99.99,dwt +perl,2013-01-05 04:59:00,
2013-01-04 21:04:00,42.4,37.0,25.15,South,183,3.0,-999.0,81,-99.99,,,-99.99,dwt +perl,2013-01-05 05:04:00,
2013-01-04 21:09:00,42.5,37.1,25.15,South,185,4.0,-999.0,81,-99.99,,,-99.99,dwt +perl,2013-01-05 05:09:00,
2013-01-04 21:14:00,42.6,37.2,25.15,SSW,201,6.0,-999.0,81,-99.99,,,-99.99,dwt +perl,2013-01-05 05:14:00,
2013-01-04 21:19:00,42.6,37.2,25.15,South,183,6.0,-999.0,81,-99.99,,,-99.99,dwt +perl,2013-01-05 05:19:00,
2013-01-04 21:24:00,42.7,37.3,25.16,SSW,196,4.0,-999.0,81,-99.99,,,-99.99,dwt +perl,2013-01-05 05:24:00,
2013-01-04 21:29:00,42.7,37.3,25.16,SSW,193,7.0,-999.0,81,-99.99,,,-99.99,dwt +perl,2013-01-05 05:29:00,
2013-01-04 21:34:00,42.6,37.5,25.16,SSW,205,5.0,-999.0,82,-99.99,,,-99.99,dwt +perl,2013-01-05 05:34:00,
2013-01-04 21:39:00,42.5,37.4,25.16,SSW,197,5.0,-999.0,82,-99.99,,,-99.99,dwt +perl,2013-01-05 05:39:00,
2013-01-04 21:44:00,42.4,37.3,25.16,SSW,201,7.0,-999.0,82,-99.99,,,-99.99,dwt +perl,2013-01-05 05:44:00,
2013-01-04 21:49:00,42.5,37.4,25.16,SSW,194,2.0,-999.0,82,-99.99,,,-99.99,dwt +perl,2013-01-05 05:49:00,
2013-01-04 21:54:00,42.7,37.6,25.16,South,188,5.0,-999.0,82,-99.99,,,-99.99,dwt +perl,2013-01-05 05:54:00,
2013-01-04 21:59:00,42.8,37.4,25.16,South,189,3.0,-999.0,81,-99.99,,,-99.99,dwt +perl,2013-01-05 05:59:00,
2013-01-04 22:04:00,42.7,37.3,25.16,SSW,195,8.0,-999.0,81,-99.99,,,-99.99,dwt +perl,2013-01-05 06:04:00,
2013-01-04 22:09:00,42.8,37.4,25.16,SSW,196,7.0,-999.0,81,-99.99,,,-99.99,dwt +perl,2013-01-05 06:09:00,
2013-01-04 22:14:00,42.7,37.3,25.16,SSW,199,4.0,-999.0,81,-99.99,,,-99.99,dwt +perl,2013-01-05 06:14:00,
2013-01-04 22:19:00,42.7,37.6,25.15,SSW,201,4.0,-999.0,82,-99.99,,,-99.99,dwt +perl,2013-01-05 06:19:00,
2013-01-04 22:24:00,42.7,37.6,25.16,South,191,6.0,-999.0,82,-99.99,,,-99.99,dwt +perl,2013-01-05 06:24:00,
2013-01-04 22:29:00,42.8,37.4,25.16,South,190,3.0,-999.0,81,-99.99,,,-99.99,dwt +perl,2013-01-05 06:29:00,
2013-01-04 22:34:00,42.8,37.4,25.15,South,183,3.0,-999.0,81,-99.99,,,-99.99,dwt +perl,2013-01-05 06:34:00,
2013-01-04 22:39:00,42.7,37.6,25.16,SSW,195,5.0,-999.0,82,-99.99,,,-99.99,dwt +perl,2013-01-05 06:39:00,
2013-01-04 22:44:00,42.6,37.5,25.16,South,186,5.0,-999.0,82,-99.99,,,-99.99,dwt +perl,2013-01-05 06:44:00,
2013-01-04 22:49:00,42.3,37.5,25.16,SSW,197,7.0,-999.0,83,-99.99,,,-99.99,dwt +perl,2013-01-05 06:49:00,
2013-01-04 22:54:00,42.0,37.5,25.16,SSW,194,4.0,-999.0,84,-99.99,,,-99.99,dwt +perl,2013-01-05 06:54:00,
2013-01-04 22:59:00,41.7,37.5,25.16,SSW,207,5.0,-999.0,85,-99.99,,,-99.99,dwt +perl,2013-01-05 06:59:00,
2013-01-04 23:04:00,41.6,37.4,25.16,SW,215,7.0,-999.0,85,-99.99,,,-99.99,dwt +perl,2013-01-05 07:04:00,
2013-01-04 23:09:00,41.7,37.5,25.16,SSW,206,4.0,-999.0,85,-99.99,,,-99.99,dwt +perl,2013-01-05 07:09:00,
2013-01-04 23:14:00,41.6,37.7,25.16,SSW,195,8.0,-999.0,86,-99.99,,,-99.99,dwt +perl,2013-01-05 07:14:00,
2013-01-04 23:19:00,41.5,37.6,25.15,South,181,4.0,-999.0,86,-99.99,,,-99.99,dwt +perl,2013-01-05 07:19:00,
2013-01-04 23:24:00,41.2,37.3,25.15,SW,218,3.0,-999.0,86,-99.99,,,-99.99,dwt +perl,2013-01-05 07:24:00,
2013-01-04 23:29:00,40.9,37.3,25.15,SSW,201,4.0,-999.0,87,-99.99,,,-99.99,dwt +perl,2013-01-05 07:29:00,
2013-01-04 23:34:00,40.6,37.3,25.15,SSW,209,8.0,-999.0,88,-99.99,,,-99.99,dwt +perl,2013-01-05 07:34:00,
2013-01-04 23:39:00,40.7,37.4,25.15,SW,217,8.0,-999.0,88,-99.99,,,-99.99,dwt +perl,2013-01-05 07:39:00,
2013-01-04 23:44:00,40.6,37.3,25.15,SW,218,10.0,-999.0,88,-99.99,,,-99.99,dwt +perl,2013-01-05 07:44:00,
2013-01-04 23:49:00,40.5,37.5,25.15,SW,219,8.0,-999.0,89,-99.99,,,-99.99,dwt +perl,2013-01-05 07:49:00,
2013-01-04 23:54:00,40.7,37.7,25.15,SSW,198,5.0,-999.0,89,-99.99,,,-99.99,dwt +perl,2013-01-05 07:54:00,
2013-01-04 23:59:00,40.9,37.9,25.15,SW,217,8.0,-999.0,89,-99.99,,,-99.99,dwt +perl,2013-01-05 07:59:00,